{"data":{"norad_id":57819,"intl_designator":"2023-138M","name":"STARLINK-30390","alt_names":[],"object_type":"PAYLOAD","status":"ACTIVE","operator":null,"country":"US","launch_date":"2023-09-09","launch_site_code":"AFETR","launch_vehicle":null,"mission":null,"orbit_class":"UNKNOWN","rcs_meters":null,"size_class":null,"mass_kg":null,"dimensions":null,"purposes":["comms"],"wikipedia_slug":null,"has_3d_model":false,"image_url":null,"decayed_at":null,"tle_current":{"epoch":"2026-05-25T01:25:38.271072Z","epoch_age_seconds":70726,"freshness":"FRESH","line1":"1 57819U 23138M   26145.05947073  .00001296  00000+0  56626-4 0  9996","line2":"2 57819  43.0015 163.2641 0001491 265.0494  95.0188 15.27582783150356","mean_motion":15.27582783,"eccentricity":0.0001491,"inclination_deg":43.0015,"raan_deg":163.2641,"arg_perigee_deg":265.0494,"mean_anomaly_deg":95.0188,"bstar":5.6626e-5,"rev_number":15035,"period_min":94.266576975423,"perigee_km":482.0177611447,"apogee_km":484.06376435355,"semimajor_km":6861.1777627491,"source":"CELESTRAK","updated_at":"2026-05-25T13:38:18.410718Z"}}}